[[{"header":{"parameterUnit":"m.s-1","parameterCategory":1,"la1":30.2991,"la2":30.254,"lo1":-89.0895,"lo2":-89.0444,"dy":0.0017,"dx":0.0017,"nx":28,"ny":28,"refTime":"2023-10-25T03:00:00:Z","depth":0,"parameterNumber":2,"parameterNumberName":"U-component_of_WINDS"},"data":[0,0,0,0,0,0,0,0,0,0,0,0,0,0,0,0,0,0,0,0,0,0,0,0,0,0,0,0,0,0,0,0,0,0,0,0,0,0,0,0,0,0,0,0,0,0,0,0,0,0,0,0,0,0,0,0,0,0,-6.3331,-6.3333,0,-6.3558,-6.356,-6.3563,-6.351,-6.3506,-6.3501,-6.3497,-6.3729,-6.3738,-6.3749,0,0,0,0,0,0,0,0,0,0,0,0,0,-6.2852,-6.2861,-6.3331,-6.3334,-6.3337,-6.3557,-6.356,-6.3564,-6.3511,-6.3505,-6.35,-6.3495,-6.3725,-6.3737,-6.3749,0,0,0,0,0,0,0,0,0,0,0,0,0,-6.3068,-6.2864,-6.333,-6.3337,-6.334,-6.3557,-6.3561,-6.3564,-6.3512,-6.3505,-6.3499,-6.3493,-6.3721,-6.3736,-6.3751,-6.3976,0,0,-6.3798,-6.3805,0,0,0,0,0,0,0,0,-6.3056,-6.3085,-6.3333,-6.3337,-6.334,-6.3499,-6.3476,-6.3702,-6.3513,-6.3446,-6.3497,-6.349,-6.3657,-6.3677,-6.3734,-6.3986,-6.3996,-6.3799,-6.3809,-6.3815,-6.3819,0,0,0,0,0,0,0,-6.3041,-6.3075,-6.342,-6.3337,-6.3341,-6.3328,-6.3352,-6.3519,-6.3586,-6.3452,-6.3448,-6.3476,-6.3658,-6.372,-6.3739,-6.4,-6.3799,-6.3812,-6.3822,-6.3828,-6.4449,-6.4456,0,0,0,0,0,0,-6.3023,-6.3063,-6.3413,-6.3427,-6.3179,-6.3342,-6.3369,-6.3455,-6.3584,-6.3597,-6.3481,-6.3473,-6.3697,-6.3722,-6.3747,-6.402,-6.3815,-6.3829,-6.3838,-6.4442,-6.4451,-6.4459,0,0,0,0,0,0,-6.3013,-6.3055,-6.3404,-6.3245,-6.3288,-6.3358,-6.3455,-6.3462,-6.3524,-6.3606,-6.3617,-6.3532,-6.3693,-6.3726,-6.392,-6.4027,-6.3836,-6.385,-6.4433,-6.4445,-6.4455,-6.4565,0,0,0,0,0,0,-6.2999,-6.3051,-6.3137,-6.3247,-6.3297,-6.3573,-6.3461,-6.3472,-6.3551,-6.3541,-6.3657,-6.3669,-6.369,-6.3897,-6.3935,-6.4044,-6.3862,-6.4424,-6.4438,-6.4451,-6.4552,-6.4579,-6.4601,0,0,0,0,0,-6.2982,-6.3158,-6.3141,-6.3184,-6.3405,-6.3579,-6.3608,-6.3628,-6.3559,-6.3646,-6.3699,-6.3666,-6.4009,-6.3917,-6.3959,-6.4075,-6.4417,-6.4434,-6.445,-6.4541,-6.4573,-6.4601,0,0,0,0,0,0,-6.3058,-6.3173,-6.3155,-6.3372,-6.3467,-6.357,-6.368,-6.3661,-6.3776,-6.3763,-6.3783,-6.381,-6.4008,-6.4061,-6.3957,-6.43,-6.4203,-6.4229,-6.4258,-6.4289,-6.4313,-6.4296,-6.3875,0,0,0,0,0,-6.31,-6.3231,-6.3325,-6.3507,-6.3555,-6.361,-6.3686,-6.3694,-6.3792,-6.3832,-6.3899,-6.3996,-6.4125,-6.421,-6.4334,-6.456,-6.4585,-6.4661,-6.4685,-6.4704,-6.4726,-6.4851,-6.4886,-6.4513,-6.4513,-6.4513,0,0,-6.3187,-6.3266,-6.3348,-6.3524,-6.3598,-6.3734,-6.3644,-6.3791,-6.3892,-6.3854,-6.4042,-6.4095,-6.4204,-6.4415,-6.4512,-6.4466,-6.4835,-6.4726,-6.4741,-6.4752,-6.4872,-6.4907,-6.4939,-6.4524,-6.4522,-6.452,0,0,-6.3417,-6.349,-6.365,-6.3727,-6.3841,-6.3877,-6.3915,-6.4023,-6.4057,-6.4246,-6.422,-6.4341,-6.4564,-6.4644,-6.4713,-6.4976,-6.495,-6.5016,-6.5143,-6.5265,-6.5294,-6.532,-6.5415,-6.5449,-6.5038,-6.5038,-6.5038,0,-6.3511,-6.3715,-6.3735,-6.3886,-6.3965,-6.3938,-6.4101,-6.4174,-6.4323,-6.4378,-6.4324,-6.4605,-6.4676,-6.4907,-6.4971,-6.5028,-6.5073,-6.5002,-6.5289,-6.5315,-6.534,-6.543,-6.5466,-6.5045,-6.5044,-6.5044,-6.5043,0,-6.3826,-6.3969,-6.4085,-6.4231,-6.4322,-6.4479,-6.4522,-6.4613,-6.4614,-6.4655,-6.4849,-6.4934,-6.5076,-6.5131,-6.5133,-6.5363,-6.5331,-6.5283,-6.5186,-6.5382,-6.5468,-6.5502,-6.5056,-6.5053,-6.5051,-6.5049,0,0,-6.4107,-6.4264,-6.4306,-6.4373,-6.4498,-6.4608,-6.4764,-6.4903,-6.4981,-6.5085,-6.5217,-6.5407,-6.5365,-6.5444,-6.5454,-6.5561,-6.5765,-6.55,-6.5503,-6.5547,-6.6026,-6.606,-6.61,-6.5749,-6.5756,-6.5761,-6.6016,0,-6.4348,-6.4623,-6.4647,-6.4894,-6.5027,-6.5005,-6.5141,-6.5232,-6.5276,-6.5395,-6.5443,-6.5578,-6.5511,-6.5559,-6.5664,-6.5718,-6.5862,-6.57,-6.5872,-6.5878,-6.5845,-6.6145,-6.6182,-6.6418,-6.605,-6.6055,-6.606,0,-6.4665,-6.478,-6.5041,-6.515,-6.5207,-6.5328,-6.5459,-6.5573,-6.5677,-6.5702,-6.5792,-6.5789,-6.595,-6.5848,-6.607,-6.596,-6.6032,-6.607,-6.6079,-6.6096,-6.598,-6.6169,-6.6494,-6.653,-6.6112,-6.6108,-6.6104,0,-6.4844,-6.5065,-6.525,-6.5308,-6.5439,-6.5525,-6.5584,-6.5682,-6.5765,-6.5879,-6.5934,-6.6065,-6.6137,-6.6239,-6.6272,-6.6194,-6.6494,-6.6394,-6.6519,-6.6518,-6.6582,-6.6577,-6.6923,-6.6629,-6.6629,-6.6628,-6.6627,0,-6.5111,-6.5271,-6.5333,-6.5446,-6.5626,-6.5653,-6.583,-6.5884,-6.5972,-6.6096,-6.6085,-6.6202,-6.6238,-6.6361,-6.6388,-6.6569,-6.6602,-6.6626,-6.6631,-6.6627,-6.6624,-6.6674,-6.6658,-6.6637,-6.6635,-6.6633,-6.6632,0,-6.534,-6.5388,-6.5588,-6.5697,-6.5729,-6.5857,-6.595,-6.606,-6.6103,-6.626,-6.6299,-6.6366,-6.6511,-6.6554,-6.6728,-6.6746,-6.6958,-6.6948,-6.6923,-6.6923,-6.7046,-6.7034,-6.7435,-6.7489,-6.716,-6.7163,-6.7166,0,-6.5506,-6.563,-6.5753,-6.5836,-6.5899,-6.6033,-6.6118,-6.615,-6.6239,-6.6369,-6.6463,-6.6607,-6.6723,-6.6956,-6.702,-6.7154,-6.7147,-6.7279,-6.7167,-6.716,-6.715,-6.7142,-6.7154,-6.73,-6.7303,-6.7306,-6.7308,0,-6.5797,-6.5815,-6.5939,-6.6072,-6.6175,-6.6281,-6.6383,-6.6452,-6.6498,-6.6599,-6.6748,-6.6839,-6.7018,-6.7161,-6.7297,-6.7357,-6.7342,-6.7343,-6.7379,-6.7376,-6.7356,-6.7369,-6.698,-6.7334,-6.7331,-6.7329,-6.7328,-6.7327,-6.6,-6.6109,-6.6214,-6.6353,-6.6434,-6.653,-6.664,-6.6697,-6.6822,-6.6971,-6.6982,-6.7144,-6.7247,-6.7428,-6.7496,-6.7623,-6.7584,-6.7636,-6.7649,-6.7662,-6.7672,-6.7337,-6.7648,-6.7647,-6.7647,-6.7646,-6.7646,0,-6.6289,-6.6356,-6.6484,-6.6629,-6.6739,-6.6716,-6.6828,-6.6921,-6.7064,-6.7162,-6.7278,-6.745,-6.7589,-6.7666,-6.7805,-6.7892,-6.7888,-6.7927,-6.7921,-6.7935,-6.7698,-6.7653,-6.7928,-6.7928,-6.7928,-6.7928,-6.7928,-6.7928,-6.6453,-6.6637,-6.6668,-6.6893,-6.6959,-6.7118,-6.7185,-6.7274,-6.7353,-6.7546,-6.7662,-6.7711,-6.7802,-6.7948,-6.8075,-6.8094,-6.8145,-6.8189,-6.8204,-6.7981,-6.7952,-6.7924,-6.7882,-6.82,-6.8201,-6.843,-6.8432,-6.8434]},{"header":{"parameterUnit":"m.s-1","parameterCategory":1,"la1":30.2991,"la2":30.254,"lo1":-89.0895,"lo2":-89.0444,"dy":0.0017,"dx":0.0017,"nx":28,"ny":28,"refTime":"2023-10-25T03:00:00:Z","depth":0,"parameterNumber":3,"parameterNumberName":"V-component_of_WINDS"},"data":[0,0,0,0,0,0,0,0,0,0,0,0,0,0,0,0,0,0,0,0,0,0,0,0,0,0,0,0,0,0,0,0,0,0,0,0,0,0,0,0,0,0,0,0,0,0,0,0,0,0,0,0,0,0,0,0,0,0,-0.7403,-0.7402,0,-0.7309,-0.7308,-0.7307,-0.7306,-0.7308,-0.7309,-0.731,-0.7205,-0.7201,-0.7197,0,0,0,0,0,0,0,0,0,0,0,0,0,-0.7571,-0.7568,-0.7404,-0.7402,-0.7401,-0.731,-0.7308,-0.7307,-0.7306,-0.7308,-0.7309,-0.7311,-0.7206,-0.7201,-0.7197,0,0,0,0,0,0,0,0,0,0,0,0,0,-0.749,-0.7567,-0.7404,-0.739,-0.7388,-0.731,-0.7308,-0.7307,-0.7306,-0.7308,-0.731,-0.7311,-0.7208,-0.7202,-0.7196,-0.7123,0,0,-0.7178,-0.7175,0,0,0,0,0,0,0,0,-0.7494,-0.7484,-0.7393,-0.7391,-0.7388,-0.7322,-0.7329,-0.7245,-0.7305,-0.7337,-0.731,-0.7312,-0.7242,-0.7233,-0.7211,-0.7118,-0.7113,-0.7177,-0.7174,-0.7171,-0.717,0,0,0,0,0,0,0,-0.75,-0.7487,-0.7366,-0.7392,-0.7389,-0.7385,-0.7375,-0.7313,-0.728,-0.7334,-0.7334,-0.7323,-0.724,-0.7217,-0.7208,-0.7112,-0.7177,-0.7172,-0.7169,-0.7166,-0.6946,-0.6944,0,0,0,0,0,0,-0.751,-0.7492,-0.7369,-0.7363,-0.7447,-0.738,-0.737,-0.7341,-0.728,-0.7273,-0.7322,-0.7324,-0.7226,-0.7215,-0.7205,-0.711,-0.7171,-0.7166,-0.7162,-0.6948,-0.6945,-0.6943,0,0,0,0,0,0,-0.7513,-0.7499,-0.7373,-0.7428,-0.7411,-0.7376,-0.7343,-0.7338,-0.7315,-0.7271,-0.7264,-0.7304,-0.7227,-0.7213,-0.7142,-0.7106,-0.7163,-0.7158,-0.6951,-0.6947,-0.6944,-0.6922,0,0,0,0,0,0,-0.7518,-0.75,-0.7475,-0.7427,-0.7409,-0.7315,-0.7341,-0.7335,-0.7305,-0.7307,-0.7253,-0.7246,-0.7227,-0.7151,-0.7136,-0.7099,-0.7153,-0.6954,-0.6949,-0.6945,-0.6926,-0.6919,-0.6912,0,0,0,0,0,-0.7524,-0.7472,-0.7474,-0.7459,-0.7377,-0.7313,-0.7302,-0.7285,-0.7303,-0.7274,-0.7246,-0.7247,-0.7114,-0.7144,-0.7127,-0.7088,-0.6956,-0.6951,-0.6946,-0.6929,-0.692,-0.6912,0,0,0,0,0,0,-0.7514,-0.7466,-0.7467,-0.7398,-0.736,-0.7313,-0.7278,-0.7277,-0.723,-0.7233,-0.7211,-0.7198,-0.7126,-0.7101,-0.7135,-0.701,-0.7036,-0.7028,-0.7029,-0.702,-0.7014,-0.7019,-0.7148,0,0,0,0,0,-0.7505,-0.7461,-0.7419,-0.7362,-0.7343,-0.7314,-0.7286,-0.7276,-0.7234,-0.7217,-0.7183,-0.714,-0.7087,-0.7053,-0.7003,-0.6923,-0.6908,-0.6888,-0.6881,-0.6875,-0.6866,-0.6816,-0.6804,-0.6926,-0.6926,-0.6926,0,0,-0.7483,-0.7451,-0.7424,-0.7359,-0.7329,-0.7279,-0.73,-0.7248,-0.7209,-0.7208,-0.7138,-0.7112,-0.7061,-0.6984,-0.6949,-0.696,-0.683,-0.6869,-0.6865,-0.6859,-0.6809,-0.6798,-0.6787,-0.6922,-0.6923,-0.6924,0,0,-0.7417,-0.7392,-0.7339,-0.7307,-0.7261,-0.7241,-0.7228,-0.7181,-0.7164,-0.7094,-0.709,-0.7042,-0.6955,-0.6917,-0.6886,-0.6803,-0.68,-0.6787,-0.6749,-0.67,-0.669,-0.6682,-0.6646,-0.6634,-0.6779,-0.6779,-0.6779,0,-0.7395,-0.7324,-0.7311,-0.7258,-0.7227,-0.7225,-0.7168,-0.7138,-0.7076,-0.7052,-0.7068,-0.6954,-0.692,-0.6831,-0.681,-0.6788,-0.6767,-0.6791,-0.6694,-0.6685,-0.6676,-0.6641,-0.6629,-0.6778,-0.6778,-0.6778,-0.6778,0,-0.7297,-0.7247,-0.7209,-0.7151,-0.7116,-0.7062,-0.7035,-0.7001,-0.6993,-0.697,-0.6895,-0.6855,-0.6794,-0.6773,-0.6765,-0.6681,-0.6689,-0.6699,-0.6724,-0.6663,-0.663,-0.6617,-0.6775,-0.6776,-0.6776,-0.6777,0,0,-0.7221,-0.7156,-0.7141,-0.7113,-0.706,-0.7019,-0.6962,-0.6904,-0.6872,-0.683,-0.6777,-0.6701,-0.6709,-0.6674,-0.6661,-0.6619,-0.6547,-0.6633,-0.6631,-0.6613,-0.6444,-0.6433,-0.6418,-0.6547,-0.6544,-0.6542,-0.6446,0,-0.7146,-0.7048,-0.7033,-0.6944,-0.6894,-0.689,-0.684,-0.6799,-0.6775,-0.6726,-0.6699,-0.6643,-0.6661,-0.6639,-0.6598,-0.6565,-0.6512,-0.6572,-0.6491,-0.6488,-0.6499,-0.6402,-0.6391,-0.6302,-0.6434,-0.6432,-0.643,0,-0.7046,-0.7001,-0.6907,-0.6857,-0.6835,-0.6791,-0.6733,-0.6689,-0.6641,-0.6626,-0.6586,-0.6577,-0.6511,-0.6542,-0.6449,-0.649,-0.6456,-0.6434,-0.643,-0.6418,-0.6452,-0.6381,-0.6275,-0.6259,-0.6411,-0.6412,-0.6414,0,-0.6993,-0.6909,-0.6841,-0.6818,-0.6759,-0.6726,-0.6699,-0.6654,-0.6618,-0.6567,-0.6543,-0.6485,-0.6451,-0.6404,-0.6377,-0.6404,-0.6283,-0.6313,-0.6263,-0.6263,-0.6234,-0.6236,-0.6115,-0.6222,-0.6222,-0.6222,-0.6223,0,-0.6908,-0.6849,-0.6816,-0.6774,-0.6706,-0.6688,-0.662,-0.6593,-0.6551,-0.65,-0.6494,-0.6444,-0.6415,-0.636,-0.6339,-0.626,-0.6246,-0.6228,-0.6222,-0.6226,-0.6227,-0.6199,-0.6202,-0.6219,-0.6219,-0.622,-0.6221,0,-0.6837,-0.6813,-0.6737,-0.6688,-0.6674,-0.6625,-0.658,-0.6536,-0.6512,-0.6446,-0.643,-0.6391,-0.6325,-0.6295,-0.6214,-0.6199,-0.6108,-0.6109,-0.6124,-0.6121,-0.607,-0.6073,-0.5923,-0.5899,-0.6027,-0.6026,-0.6025,0,-0.6782,-0.6736,-0.6682,-0.6648,-0.662,-0.6567,-0.653,-0.6509,-0.647,-0.6409,-0.6371,-0.6306,-0.6252,-0.6146,-0.6107,-0.6043,-0.6039,-0.5991,-0.6029,-0.6032,-0.603,-0.6031,-0.6023,-0.5982,-0.5981,-0.598,-0.5979,0,-0.6684,-0.6674,-0.6624,-0.6568,-0.6525,-0.6479,-0.6434,-0.6406,-0.6376,-0.6332,-0.6266,-0.6225,-0.6141,-0.6073,-0.6007,-0.5974,-0.5968,-0.5968,-0.5952,-0.5952,-0.596,-0.5949,-0.6099,-0.597,-0.5971,-0.5972,-0.5972,-0.5973,-0.6615,-0.6573,-0.6526,-0.6468,-0.6433,-0.639,-0.6344,-0.6315,-0.626,-0.6192,-0.6182,-0.6109,-0.6056,-0.5966,-0.5931,-0.587,-0.5881,-0.5859,-0.5852,-0.5846,-0.5839,-0.5975,-0.5858,-0.5859,-0.5859,-0.5859,-0.5859,0,-0.6512,-0.6482,-0.643,-0.6367,-0.6319,-0.6324,-0.6273,-0.6231,-0.6169,-0.6122,-0.6069,-0.5989,-0.5923,-0.5879,-0.581,-0.5769,-0.5764,-0.5751,-0.5751,-0.5742,-0.5837,-0.5855,-0.5756,-0.5756,-0.5756,-0.5756,-0.5756,-0.5756,-0.6453,-0.6379,-0.6363,-0.6269,-0.6238,-0.6169,-0.6138,-0.6096,-0.6058,-0.597,-0.5916,-0.5889,-0.584,-0.5767,-0.5704,-0.5692,-0.5664,-0.5649,-0.5637,-0.5726,-0.5736,-0.5746,-0.5763,-0.5645,-0.5645,-0.5546,-0.5545,-0.5544]}]]